Погода в Палестине

США     31°45′42″N   95°37′52″W
темп.,
°C
ветер,
м/с
пор.,
м/с
влажн.,
%
обл.,
%
осадки,
мм/ч
давл.,
гПа
погр.,
м
17 мая, пн
пн1701:00+20ююв5129992 0.8 1013507
04:00+20ю4119897 0.0 1011523
07:00+20ю2799100 1.0 1013389
10:00+20всв1298100 6.6 101478
13:00+24юз3486100 8.5 1014527
16:00+26ююв57771 0.0 1009420
19:00+26ююв35820 0.0 1010351
22:00+21юв4109675 0.0 1010279
18 мая, вт
вт1801:00+21юв51297100 0.0 1011425
04:00+21юв51398100 0.0 1010546
07:00+22ююв51192100 0.1 1011749
10:00+24ююв489264 2.3 1012592
13:00+27ююв588250 6.8 1011999
16:00+26ююв61085100 3.7 1009950
19:00+24ююв51288100 5.6 1008485
22:00+22юв71594100 6.1 1009578
19 мая, ср
ср1901:00+20юв71094100 38.2 1009340
04:00+21вюв5897100 33.1 1009265
07:00+21юв51294100 52.4 1011313
10:00+24ю61191100 14.6 1013737
13:00+25вюв688778 20.4 1011755
16:00+19в61298100 13.8 1011546
19:00+19всв61198100 32.0 1010476
22:00+19вюв3599100 13.6 1013169
20 мая, чт
чт2001:00+18юв4119785 13.9 1013463
04:00+17ююв5129738 0.0 1013353
07:00+18ююв2899100 0.6 1015293
10:00+19с1299100 10.1 1015187
13:00+21св1599100 31.2 1017303
16:00+25вюв478899 6.6 1015695
19:00+23вюв51190100 14.3 1015435
22:00+22вюв5149598 5.1 1017709
21 мая, пт
пт2101:00+21вюв61496100 5.1 1018768
04:00+21вюв51296100 1.1 1018838
07:00+21вюв41097100 4.1 1019670
10:00+22вюв5119689 3.4 1021724
13:00+26юв588391 4.0 10201049
16:00+26вюв6986100 4.6 1019886
19:00+23юв51292100 9.7 1019608
22:00+22юв41295100 2.9 1021587